Location: B�rgermoos
(47.6500°N, 9.0667°E)
Time: 09:23:50
(UTC+00:00)

A-11 Canister half - Pass Details

Date: 04 August 2021
Orbit: 1526 x 1683 km, 47.3° (Epoch: 20 September)

Event Time Altitude Azimuth Distance (km) Brightness Sun altitude
Rises 15:16:45 0° 289° (WNW) 4,916 12.4 34.8°
Reaches altitude 10° 15:19:59 10° 285° (WNW) 3,912 12.2 34.2°
Maximum altitude 15:29:41 58° 210° (SSW) 1,843 10.4 32.6°
Drops below altitude 10° 15:39:03 10° 135° (SE) 3,784 10.8 31.1°
Sets 15:42:08 0° 131° (SE) 4,746 11.2 30.6°
